Location: Kalberh�ni
(46.4610°N, 7.2453°E)
Time: 07:47:45
(UTC+00:00)

FALCON 9 DEB - Pass Details

Date: 01 November 2021
Orbit: 344 x 354 km, 53.0° (Epoch: 30 November)

Event Time Altitude Azimuth Distance (km) Brightness Sun altitude
Rises 17:11:40 0° 261° (W) 2,163 9.0 -10.1°
Reaches altitude 10° 17:13:45 10° 270° (W) 1,326 7.1 -10.4°
Maximum altitude 17:16:32 37° 340° (NNW) 579 3.8 -10.9°
Enters shadow 17:18:43 15° 45° (NE) 1,102 4.7 -11.3°
